Content
SEND FEEDBACK

Daily
Averages
Monthly
Summary
Switzerland

GENEVA, SWITZERLAND


Home > Europe > Switzerland
Elevation: 1364 feet     Latitude: 46 15N     Longitude: 006 08E

WEATHER
 
SELECT A DAY
Number of Records: 306,355;   Date Range: 7/1/96 - 9/20/14
 
SHARE

PRINT THIS DATA

[ ← Previous Day ]
WEATHER ALMANAC - SEPTEMBER 28, 2013
[ Next Day → ]
[ °C ]   °F
Weather ElementAverageHighLow
Temperature62.4 °F69.8 °F (1:50 pm)55.4 °F (3:50 am)
Dewpoint59.3 °F62.6 °F (1:20 pm)54 °F (7:00 am)
Humidity89.2 %100 % (12:20 am)68 % (2:00 pm)
Barometer29.83 in29.92 in (12:20 am)29.71 in (7:00 pm)
Wind Speed2.1 mph6.9 mph (3:50 pm)
Weather ElementAverage
Visibility5 mi
Wind DirectionENE (60.3 °)

Weather ElementTotal
Precipitation---
Heating Degree Days2.4 (Base 65)
Growing Degree Days12.6 (Base 50)
Averaged from 65 records on September 28, 2013
WEATHER CONDITIONS BREAKOUT
WIND DIRECTION BREAKOUT
WEATHER BY HOUR - SEPTEMBER 28, 2013
[ °C ]   °F
Local TimeTemperatureDewpointHumidityBarometerVisibilityWind DirectionWind SpeedGust SpeedPrecipitationEventsConditions
12:20 AM59.0 °F59.0 °F100 %29.92 inCalmClear
12:50 AM59.0 °F57.2 °F94 %29.92 inCalmClear
1:00 AM58.0 °F56.0 °F91 %29.91 inWNW (290°)2.3 mph
1:20 AM57.2 °F57.2 °F100 %29.92 inVariable1.2 mphClear
1:50 AM57.2 °F57.2 °F100 %29.92 inCalmClear
2:00 AM58.0 °F56.0 °F91 %29.90 in10.0 miEast (80°)1.2 mphClear
2:20 AM57.2 °F57.2 °F100 %29.92 inCalmClear
2:50 AM57.2 °F55.4 °F94 %29.92 inCalmClear
3:00 AM57.0 °F56.0 °F93 %29.90 inEast (90°)1.2 mph
3:50 AM55.4 °F55.4 °F100 %29.89 in5.6 miCalm
4:00 AM57.0 °F55.0 °F92 %29.90 inNW (320°)1.2 mph
4:20 AM55.4 °F55.4 °F100 %29.89 in5.0 miCalm
4:50 AM55.4 °F55.4 °F100 %29.89 in5.0 miCalm
5:20 AM55.4 °F55.4 °F100 %29.89 in5.0 miCalm
5:50 AM55.4 °F55.4 °F100 %29.89 in5.0 miCalm
6:20 AM55.4 °F55.4 °F100 %29.89 in4.3 miCalmFogFog
6:50 AM55.4 °F55.4 °F100 %29.89 in3.7 miCalmScattered Clouds
7:00 AM56.0 °F54.0 °F90 %29.88 inNorth (350°)1.2 mph
7:20 AM55.4 °F55.4 °F100 %29.89 in3.7 miCalmFogPatches of Fog
7:50 AM55.4 °F55.4 °F100 %29.89 in1.6 miWest (270°)1.2 mphFogPatches of Fog
8:00 AM56.0 °F55.0 °F94 %29.87 in4.0 miNNW (340°)2.3 mphFogPatches of Fog
8:20 AM55.4 °F55.4 °F100 %29.89 in3.7 miVariable1.2 mphOvercast
8:50 AM57.2 °F57.2 °F100 %29.86 in3.7 miCalmOvercast
9:00 AM58.0 °F56.0 °F91 %29.86 inNorth (10°)2.3 mph
9:20 AM59.0 °F59.0 °F100 %29.86 in4.3 miCalmOvercast
9:50 AM60.8 °F59.0 °F94 %29.89 in5.6 miCalmOvercast
10:00 AM61.0 °F58.0 °F85 %29.86 inENE (70°)2.3 mph
10:20 AM62.6 °F59.0 °F88 %29.89 in6.2 miVariable2.3 mphMostly Cloudy
10:50 AM64.4 °F60.8 °F88 %29.89 in6.2 miVariable1.2 mphMostly Cloudy
11:20 AM66.2 °F60.8 °F83 %29.86 in6.2 miVariable2.3 mphMostly Cloudy
11:50 AM68.0 °F60.8 °F78 %29.86 in4.3 miVariable2.3 mphMostly Cloudy
12:00 PM65.0 °F59.0 °F76 %29.83 inENE (70°)3.5 mph
12:20 PM66.2 °F60.8 °F83 %29.86 in4.3 miEast (80°)5.8 mphOvercast
12:50 PM68.0 °F60.8 °F78 %29.86 in4.3 miEast (100°)4.6 mphPartly Cloudy
1:00 PM66.0 °F60.0 °F75 %29.82 inSE (130°)4.6 mph
1:20 PM68.0 °F62.6 °F83 %29.83 in4.3 miVariable3.5 mphScattered Clouds
1:50 PM69.8 °F62.6 °F78 %29.83 in4.3 miEast (90°)4.6 mphMostly Cloudy
2:00 PM68.0 °F60.0 °F68 %29.79 in4.0 miEast (80°)4.6 mphMist
2:20 PM68.0 °F60.8 °F78 %29.83 in5.0 miEast (80°)5.8 mphMostly Cloudy
2:50 PM68.0 °F60.8 °F78 %29.80 in4.3 miEast (80°)5.8 mphRainLight Rain Showers
3:00 PM67.0 °F61.0 °F75 %29.77 inNNE (30°)5.8 mph
3:20 PM68.0 °F62.6 °F83 %29.80 in5.0 miENE (70°)4.6 mph
3:50 PM68.0 °F60.8 °F78 %29.80 in5.6 miNE (40°)6.9 mph
4:00 PM68.0 °F61.0 °F71 %29.75 inNNE (20°)4.6 mph
4:20 PM68.0 °F62.6 °F83 %29.77 in5.6 miNE (40°)4.6 mph
4:50 PM68.0 °F62.6 °F83 %29.77 in5.6 miNorth (360°)3.5 mph
5:20 PM68.0 °F62.6 °F83 %29.77 in5.6 miVariable2.3 mph
5:50 PM68.0 °F62.6 °F83 %29.77 in5.6 miVariable1.2 mph
6:00 PM68.0 °F61.0 °F73 %29.73 inESE (110°)1.2 mph
6:20 PM68.0 °F62.6 °F83 %29.77 in5.6 miVariable2.3 mph
6:50 PM68.0 °F62.6 °F83 %29.74 in5.6 miVariable1.2 mph
7:00 PM67.0 °F62.0 °F79 %29.71 inENE (70°)5.8 mph
7:20 PM66.2 °F62.6 °F88 %29.74 in5.6 miEast (90°)4.6 mph
7:50 PM66.2 °F62.6 °F88 %29.74 in5.6 miVariable1.2 mph
8:00 PM65.0 °F61.0 °F83 %29.72 in6.0 miNE (50°)3.5 mphMist
8:20 PM64.4 °F62.6 °F94 %29.77 in5.6 miVariable1.2 mph
8:50 PM64.4 °F62.6 °F94 %29.77 in5.0 miVariable2.3 mphMostly Cloudy
9:00 PM66.0 °F61.0 °F80 %29.74 inWSW (240°)2.3 mph
9:20 PM64.4 °F62.6 °F94 %29.77 in5.0 miVariable1.2 mphMostly Cloudy
9:50 PM64.4 °F62.6 °F94 %29.77 in5.0 miVariable1.2 mphMostly Cloudy
10:00 PM64.0 °F61.0 °F87 %29.75 inWest (270°)1.2 mph
10:20 PM62.6 °F62.6 °F100 %29.77 in5.0 miVariable2.3 mphMostly Cloudy
10:50 PM62.6 °F62.6 °F100 %29.77 in5.0 miCalmMostly Cloudy
11:20 PM62.6 °F60.8 °F94 %29.77 in4.3 miVariable2.3 mphScattered Clouds
11:50 PM60.8 °F60.8 °F100 %29.77 in3.7 miCalm
Hourly data recorded from LSGG, located miles away from Geneva, Switzerland







STORIES FROM OUR PARTNERS